[[{"header":{"parameterUnit":"m.s-1","parameterCategory":1,"la1":30.2991,"la2":30.254,"lo1":-89.0895,"lo2":-89.0444,"dy":0.0017,"dx":0.0017,"nx":28,"ny":28,"refTime":"2024-10-19T03:00:00:Z","depth":0,"parameterNumber":2,"parameterNumberName":"U-component_of_WINDS"},"data":[0,0,0,0,0,0,0,0,0,0,0,0,0,0,0,0,0,0,0,0,0,0,0,0,0,0,0,0,0,0,0,0,0,0,0,0,0,0,0,0,0,0,0,0,0,0,0,0,0,0,0,0,0,0,0,0,0,0,-4.7372,-4.7373,0,-4.7444,-4.7445,-4.7446,-4.7257,-4.7251,-4.7245,-4.7239,-4.7319,-4.7326,-4.7334,0,0,0,0,0,0,0,0,0,0,0,0,0,-4.7075,-4.7082,-4.7372,-4.7373,-4.7374,-4.7444,-4.7445,-4.7446,-4.7258,-4.725,-4.7243,-4.7236,-4.7316,-4.7325,-4.7335,0,0,0,0,0,0,0,0,0,0,0,0,0,-4.7182,-4.7084,-4.7372,-4.7288,-4.7281,-4.7444,-4.7445,-4.7447,-4.7259,-4.725,-4.7241,-4.7233,-4.7313,-4.7325,-4.7336,-4.7585,0,0,-4.7371,-4.7376,0,0,0,0,0,0,0,0,-4.7176,-4.7193,-4.73,-4.7294,-4.7287,-4.7332,-4.737,-4.7493,-4.7261,-4.7268,-4.7239,-4.7229,-4.7331,-4.734,-4.7374,-4.7589,-4.7592,-4.7372,-4.7379,-4.7384,-4.7387,0,0,0,0,0,0,0,-4.7169,-4.7189,-4.7401,-4.7301,-4.7294,-4.7248,-4.7254,-4.7392,-4.7349,-4.7267,-4.7253,-4.7264,-4.7326,-4.7363,-4.7374,-4.7593,-4.7372,-4.7382,-4.7389,-4.7393,-4.8017,-4.8026,0,0,0,0,0,0,-4.7172,-4.7184,-4.7399,-4.7403,-4.7208,-4.7261,-4.7267,-4.7327,-4.7347,-4.7341,-4.7271,-4.7255,-4.7348,-4.7361,-4.7376,-4.767,-4.7384,-4.7395,-4.7401,-4.8007,-4.8019,-4.8029,0,0,0,0,0,0,-4.7166,-4.7193,-4.7396,-4.729,-4.7312,-4.7275,-4.7344,-4.7333,-4.737,-4.735,-4.7342,-4.7317,-4.7341,-4.736,-4.7534,-4.767,-4.74,-4.741,-4.7996,-4.8011,-4.8024,-4.8259,0,0,0,0,0,0,-4.7158,-4.7192,-4.7285,-4.7293,-4.7319,-4.7552,-4.7353,-4.7341,-4.739,-4.7369,-4.7391,-4.7386,-4.7336,-4.7518,-4.7546,-4.7681,-4.7419,-4.7983,-4.8002,-4.8019,-4.8239,-4.828,-4.8315,0,0,0,0,0,-4.7148,-4.735,-4.7291,-4.7318,-4.7434,-4.756,-4.7575,-4.7511,-4.7401,-4.7496,-4.7483,-4.7385,-4.765,-4.7537,-4.7567,-4.7708,-4.7975,-4.7997,-4.8018,-4.8222,-4.8272,-4.8314,0,0,0,0,0,0,-4.7361,-4.7349,-4.7284,-4.7494,-4.7529,-4.7528,-4.7645,-4.7566,-4.7634,-4.7612,-4.7531,-4.7538,-4.7728,-4.7734,-4.7609,-4.795,-4.7794,-4.7823,-4.7939,-4.7986,-4.8023,-4.8019,-4.7429,0,0,0,0,0,-4.7432,-4.7533,-4.7518,-4.7705,-4.7725,-4.7683,-4.7735,-4.7683,-4.7717,-4.7731,-4.7731,-4.777,-4.7861,-4.7923,-4.8007,-4.8238,-4.8241,-4.835,-4.8387,-4.8419,-4.8445,-4.857,-4.8618,-4.8101,-4.81,-4.81,0,0,-4.758,-4.7586,-4.7656,-4.7748,-4.7769,-4.7877,-4.7697,-4.7819,-4.7899,-4.775,-4.7915,-4.7916,-4.7953,-4.8158,-4.8248,-4.8169,-4.8588,-4.8446,-4.8471,-4.8481,-4.8597,-4.8646,-4.869,-4.8115,-4.8113,-4.811,0,0,-4.7907,-4.7921,-4.8078,-4.8102,-4.8136,-4.8105,-4.8144,-4.8154,-4.8149,-4.8311,-4.8202,-4.8297,-4.8456,-4.8487,-4.8524,-4.8861,-4.8775,-4.889,-4.9089,-4.9211,-4.9252,-4.9288,-4.941,-4.9455,-4.8916,-4.8917,-4.8917,0,-4.8088,-4.8245,-4.8169,-4.8299,-4.8343,-4.8211,-4.837,-4.8398,-4.8459,-4.8493,-4.8403,-4.86,-4.8616,-4.8826,-4.8908,-4.8942,-4.8984,-4.8889,-4.9252,-4.9287,-4.9319,-4.9435,-4.9481,-4.8931,-4.8929,-4.8928,-4.8927,0,-4.8467,-4.8578,-4.8701,-4.876,-4.8818,-4.8962,-4.891,-4.8977,-4.892,-4.89,-4.9068,-4.9081,-4.9165,-4.9211,-4.9156,-4.9414,-4.9364,-4.9265,-4.9107,-4.9384,-4.9491,-4.9535,-4.8951,-4.8946,-4.8942,-4.8938,0,0,-4.8932,-4.8946,-4.8993,-4.9018,-4.9044,-4.913,-4.9268,-4.9348,-4.9408,-4.9454,-4.9569,-4.9706,-4.9614,-4.9656,-4.9604,-4.971,-4.9978,-4.9597,-4.9597,-4.967,-5.0265,-5.0342,-5.0394,-4.992,-4.9928,-4.9934,-5.0263,0,-4.9255,-4.9491,-4.9426,-4.9663,-4.9765,-4.964,-4.976,-4.9791,-4.9775,-4.9861,-4.9844,-4.9943,-4.9813,-4.9837,-4.9937,-4.9925,-5.0097,-4.99,-5.0029,-5.0035,-5.0027,-5.045,-5.0532,-5.0841,-5.0304,-5.0311,-5.0316,0,-4.9664,-4.9724,-4.9971,-4.998,-5.002,-5.013,-5.0198,-5.028,-5.0313,-5.0294,-5.0341,-5.0266,-5.0404,-5.0243,-5.0433,-5.03,-5.0349,-5.0351,-5.0361,-5.0373,-5.0195,-5.0476,-5.0938,-5.0986,-5.0381,-5.0376,-5.0371,0,-4.9982,-5.0123,-5.0289,-5.0314,-5.0329,-5.0409,-5.0419,-5.0442,-5.0494,-5.0554,-5.0587,-5.0663,-5.0706,-5.0767,-5.0716,-5.0603,-5.0915,-5.0749,-5.0905,-5.0907,-5.0979,-5.0976,-5.1458,-5.1007,-5.1006,-5.1005,-5.1004,0,-5.0351,-5.0507,-5.0431,-5.0534,-5.0706,-5.063,-5.0802,-5.0798,-5.0819,-5.092,-5.0816,-5.0913,-5.0838,-5.0929,-5.089,-5.1054,-5.1073,-5.1064,-5.1052,-5.1075,-5.1077,-5.1108,-5.1086,-5.1018,-5.1015,-5.1012,-5.101,0,-5.0736,-5.0691,-5.0863,-5.0862,-5.0865,-5.0992,-5.0992,-5.1087,-5.1063,-5.1192,-5.1218,-5.1181,-5.1282,-5.1236,-5.1343,-5.1317,-5.1529,-5.1487,-5.1519,-5.1509,-5.1668,-5.1655,-5.219,-5.2257,-5.1761,-5.1765,-5.1769,0,-5.0976,-5.1093,-5.1103,-5.1162,-5.1179,-5.1275,-5.1327,-5.1257,-5.1316,-5.136,-5.1451,-5.1543,-5.1613,-5.1782,-5.1766,-5.1848,-5.1809,-5.199,-5.182,-5.184,-5.1814,-5.1809,-5.1821,-5.2026,-5.2031,-5.2036,-5.204,0,-5.1407,-5.1379,-5.1456,-5.1528,-5.1593,-5.1646,-5.169,-5.1744,-5.1675,-5.1747,-5.1848,-5.1903,-5.2011,-5.2105,-5.2176,-5.2187,-5.2105,-5.2093,-5.2134,-5.216,-5.2174,-5.217,-5.1614,-5.2082,-5.2078,-5.2074,-5.2072,-5.207,-5.1728,-5.1826,-5.1849,-5.194,-5.1965,-5.2008,-5.2098,-5.2084,-5.2167,-5.2248,-5.2201,-5.2321,-5.235,-5.2437,-5.246,-5.2553,-5.2482,-5.2541,-5.2556,-5.2572,-5.2595,-5.2156,-5.2566,-5.2564,-5.2563,-5.2562,-5.2561,0,-5.2156,-5.2163,-5.2247,-5.2311,-5.2384,-5.2294,-5.2339,-5.2406,-5.2511,-5.2544,-5.2614,-5.2732,-5.2822,-5.2812,-5.2895,-5.2972,-5.2936,-5.2996,-5.2991,-5.2996,-5.2653,-5.261,-5.3024,-5.3024,-5.3024,-5.3024,-5.3024,-5.3024,-5.2387,-5.2549,-5.2523,-5.2697,-5.2704,-5.2818,-5.2852,-5.2892,-5.2917,-5.3053,-5.3126,-5.3118,-5.3134,-5.3217,-5.3296,-5.3291,-5.3328,-5.3404,-5.3385,-5.3065,-5.302,-5.2976,-5.2936,-5.3411,-5.3412,-5.372,-5.3723,-5.3725]},{"header":{"parameterUnit":"m.s-1","parameterCategory":1,"la1":30.2991,"la2":30.254,"lo1":-89.0895,"lo2":-89.0444,"dy":0.0017,"dx":0.0017,"nx":28,"ny":28,"refTime":"2024-10-19T03:00:00:Z","depth":0,"parameterNumber":3,"parameterNumberName":"V-component_of_WINDS"},"data":[0,0,0,0,0,0,0,0,0,0,0,0,0,0,0,0,0,0,0,0,0,0,0,0,0,0,0,0,0,0,0,0,0,0,0,0,0,0,0,0,0,0,0,0,0,0,0,0,0,0,0,0,0,0,0,0,0,0,-2.8791,-2.8791,0,-2.8826,-2.8826,-2.8826,-2.8804,-2.8803,-2.8802,-2.8801,-2.8834,-2.8836,-2.8838,0,0,0,0,0,0,0,0,0,0,0,0,0,-2.8701,-2.8703,-2.8791,-2.8791,-2.8791,-2.8825,-2.8826,-2.8826,-2.8805,-2.8803,-2.8802,-2.8801,-2.8834,-2.8836,-2.8838,0,0,0,0,0,0,0,0,0,0,0,0,0,-2.8738,-2.8704,-2.879,-2.8785,-2.8785,-2.8825,-2.8826,-2.8827,-2.8805,-2.8803,-2.8802,-2.88,-2.8833,-2.8836,-2.8839,-2.8886,0,0,-2.8847,-2.8848,0,0,0,0,0,0,0,0,-2.8736,-2.8742,-2.8785,-2.8785,-2.8785,-2.8809,-2.8807,-2.8846,-2.8805,-2.8797,-2.8801,-2.88,-2.8827,-2.883,-2.884,-2.8888,-2.8889,-2.8847,-2.8849,-2.885,-2.8851,0,0,0,0,0,0,0,-2.8734,-2.874,-2.8804,-2.8786,-2.8786,-2.8779,-2.8783,-2.8814,-2.882,-2.8798,-2.8796,-2.8801,-2.8827,-2.8837,-2.8841,-2.889,-2.8847,-2.885,-2.8851,-2.8852,-2.8976,-2.8977,0,0,0,0,0,0,-2.8732,-2.8738,-2.8803,-2.8805,-2.8757,-2.8782,-2.8786,-2.8803,-2.882,-2.8821,-2.8802,-2.88,-2.8834,-2.8837,-2.8842,-2.8897,-2.885,-2.8853,-2.8854,-2.8974,-2.8976,-2.8978,0,0,0,0,0,0,-2.873,-2.8738,-2.8802,-2.8771,-2.8779,-2.8785,-2.8804,-2.8804,-2.8815,-2.8823,-2.8824,-2.8812,-2.8832,-2.8838,-2.8875,-2.8898,-2.8854,-2.8856,-2.8972,-2.8975,-2.8977,-2.9009,0,0,0,0,0,0,-2.8728,-2.8738,-2.8757,-2.8772,-2.8781,-2.8836,-2.8806,-2.8806,-2.882,-2.8817,-2.8833,-2.8834,-2.8832,-2.8871,-2.8878,-2.8901,-2.8858,-2.897,-2.8973,-2.8976,-2.9006,-2.9012,-2.9018,0,0,0,0,0,-2.8725,-2.8764,-2.8758,-2.8766,-2.8805,-2.8837,-2.8842,-2.8839,-2.8822,-2.8841,-2.8845,-2.8833,-2.8895,-2.8875,-2.8882,-2.8907,-2.8969,-2.8972,-2.8976,-2.9003,-2.9011,-2.9018,0,0,0,0,0,0,-2.8751,-2.8766,-2.8759,-2.8805,-2.882,-2.8833,-2.8857,-2.8848,-2.8867,-2.8864,-2.8859,-2.8863,-2.8901,-2.8908,-2.8886,-2.8953,-2.8929,-2.8934,-2.8947,-2.8954,-2.896,-2.8957,-2.8861,0,0,0,0,0,-2.8762,-2.8788,-2.88,-2.8839,-2.8847,-2.885,-2.8864,-2.8861,-2.8876,-2.8882,-2.889,-2.8904,-2.8926,-2.8941,-2.8962,-2.9007,-2.9009,-2.9027,-2.9033,-2.9038,-2.9042,-2.9065,-2.9073,-2.899,-2.899,-2.899,0,0,-2.8785,-2.8797,-2.8813,-2.8844,-2.8855,-2.8881,-2.8856,-2.8884,-2.8903,-2.8886,-2.8921,-2.8927,-2.8943,-2.8984,-2.9002,-2.899,-2.9066,-2.9043,-2.9046,-2.9048,-2.9069,-2.9077,-2.9084,-2.8992,-2.8992,-2.8992,0,0,-2.884,-2.8852,-2.8886,-2.8897,-2.8915,-2.8917,-2.8925,-2.8939,-2.8943,-2.8978,-2.8966,-2.8987,-2.9026,-2.9037,-2.9048,-2.9106,-2.9094,-2.9113,-2.9143,-2.9165,-2.9171,-2.9177,-2.9196,-2.9203,-2.9117,-2.9117,-2.9117,0,-2.8866,-2.8906,-2.8903,-2.8933,-2.8946,-2.8933,-2.8965,-2.8976,-2.8999,-2.9008,-2.8995,-2.9042,-2.9052,-2.9094,-2.9108,-2.9118,-2.9126,-2.911,-2.9171,-2.9177,-2.9182,-2.92,-2.9207,-2.9119,-2.9119,-2.9119,-2.9119,0,-2.8936,-2.8963,-2.8988,-2.9011,-2.9027,-2.9057,-2.9059,-2.9075,-2.907,-2.9073,-2.9109,-2.9119,-2.9142,-2.9152,-2.9148,-2.9193,-2.9185,-2.9172,-2.9147,-2.9192,-2.9209,-2.9216,-2.9122,-2.9121,-2.9121,-2.912,0,0,-2.9008,-2.9029,-2.9038,-2.9048,-2.9066,-2.9086,-2.9115,-2.9138,-2.9151,-2.9167,-2.919,-2.9223,-2.9211,-2.9223,-2.9219,-2.9239,-2.9282,-2.9223,-2.9223,-2.9232,-2.9331,-2.934,-2.9348,-2.9275,-2.9276,-2.9278,-2.9329,0,-2.9063,-2.9115,-2.9114,-2.9162,-2.9186,-2.9173,-2.9198,-2.9211,-2.9215,-2.9234,-2.9238,-2.9261,-2.9243,-2.925,-2.9269,-2.9273,-2.9302,-2.9269,-2.9295,-2.9296,-2.929,-2.9357,-2.9367,-2.9416,-2.9336,-2.9337,-2.9338,0,-2.9134,-2.9153,-2.9203,-2.9216,-2.9226,-2.9249,-2.9269,-2.9288,-2.9302,-2.9303,-2.9316,-2.931,-2.9338,-2.9313,-2.9351,-2.9329,-2.934,-2.9343,-2.9345,-2.9346,-2.9319,-2.9359,-2.9431,-2.9438,-2.9349,-2.9348,-2.9347,0,-2.9179,-2.9217,-2.9252,-2.9261,-2.9277,-2.9293,-2.9301,-2.9313,-2.9326,-2.9343,-2.9351,-2.9371,-2.9382,-2.9396,-2.9395,-2.9377,-2.9432,-2.9408,-2.9433,-2.9433,-2.9444,-2.9443,-2.9517,-2.9453,-2.9453,-2.9453,-2.9453,0,-2.924,-2.9271,-2.9272,-2.9294,-2.9327,-2.9325,-2.9358,-2.9363,-2.9374,-2.9395,-2.9386,-2.9405,-2.9403,-2.9422,-2.9421,-2.9451,-2.9456,-2.9457,-2.9456,-2.9457,-2.9457,-2.9463,-2.9459,-2.9455,-2.9454,-2.9454,-2.9454,0,-2.9296,-2.9299,-2.9335,-2.9348,-2.9352,-2.9376,-2.9386,-2.9405,-2.9408,-2.9434,-2.944,-2.9444,-2.9466,-2.9466,-2.9491,-2.949,-2.9527,-2.9523,-2.9523,-2.9521,-2.9545,-2.9542,-2.9624,-2.9634,-2.9565,-2.9566,-2.9567,0,-2.9334,-2.9357,-2.9372,-2.9386,-2.9394,-2.9417,-2.943,-2.9428,-2.9442,-2.9459,-2.9475,-2.9497,-2.9514,-2.955,-2.9554,-2.9572,-2.9568,-2.9595,-2.957,-2.957,-2.9566,-2.9564,-2.9566,-2.96,-2.9601,-2.9601,-2.9602,0,-2.94,-2.94,-2.942,-2.944,-2.9456,-2.9472,-2.9486,-2.9498,-2.9497,-2.9513,-2.9536,-2.9549,-2.9574,-2.9595,-2.9613,-2.9619,-2.961,-2.961,-2.9616,-2.9617,-2.9615,-2.9614,-2.9534,-2.9608,-2.9607,-2.9607,-2.9606,-2.9606,-2.9447,-2.9466,-2.948,-2.9502,-2.9512,-2.9526,-2.9544,-2.9549,-2.9568,-2.9589,-2.9587,-2.9612,-2.9623,-2.9647,-2.9655,-2.9673,-2.9663,-2.9673,-2.9675,-2.9677,-2.9679,-2.9613,-2.9677,-2.9676,-2.9676,-2.9676,-2.9676,0,-2.9511,-2.9519,-2.9539,-2.9559,-2.9576,-2.9567,-2.9582,-2.9597,-2.9619,-2.9631,-2.9648,-2.9673,-2.9693,-2.9699,-2.9718,-2.9731,-2.9727,-2.9736,-2.9734,-2.9736,-2.9687,-2.9679,-2.9739,-2.9739,-2.9739,-2.9739,-2.9739,-2.9739,-2.9546,-2.9578,-2.958,-2.9616,-2.9624,-2.9648,-2.9658,-2.9669,-2.9679,-2.9708,-2.9724,-2.9728,-2.9737,-2.9757,-2.9774,-2.9775,-2.9782,-2.9792,-2.9791,-2.9746,-2.9739,-2.9733,-2.9725,-2.9794,-2.9794,-2.9837,-2.9838,-2.9838]}]]